FW3145 Weather Reports


Display with metric or nautical units.
time (UTC)temp
F
wind
direction
speed
MPH
gust
MPH
rain 1hr
in
rain 24hr
in
rain mn
in
humidity
%
barometer
mb
20260904144538 96 252 0.0 0.0 0.00 0.00 0.00 29 1014.7
20260904143035 95 168 0.0 0.0 0.00 0.00 0.00 28 1014.8
20260904141544 96 181 0.0 0.0 0.00 0.00 0.00 29 1014.9
20260904140034 96 198 0.0 0.0 0.00 0.00 0.00 27 1015.0
20260904134530 95 227 0.0 0.0 0.00 0.00 0.00 28 1015.0
20260904133030 94 169 0.0 0.0 0.00 0.00 0.00 29 1015.2
20260904131527 94 175 0.0 0.0 0.00 0.00 0.00 29 1015.2
20260904130026 94 176 0.0 0.0 0.00 0.00 0.00 31 1015.3
20260904124524 94 161 0.0 0.0 0.00 0.00 0.00 31 1015.5
20260904123022 93 194 0.0 0.0 0.00 0.00 0.00 31 1015.5
20260904121521 92 195 0.0 0.0 0.00 0.00 0.00 31 1015.8
20260904120019 93 180 0.0 0.0 0.00 0.00 0.00 31 1016.0
20260904114533 92 238 0.0 0.0 0.00 0.00 0.00 30 1016.1
20260904113016 92 156 0.0 0.0 0.00 0.00 0.00 32 1016.2
20260904111513 91 209 0.0 0.0 0.00 0.00 0.00 33 1016.3
20260904110022 90 132 0.0 0.0 0.00 0.00 0.00 32 1016.4
20260904104508 90 203 0.0 0.0 0.00 0.00 0.00 34 1016.6
20260904103005 89 166 0.0 0.0 0.00 0.00 0.00 37 1016.7
20260904101503 88 202 0.0 0.0 0.00 0.00 0.00 38 1016.8
20260904100100 88 198 0.0 0.0 0.00 0.00 0.00 35 1016.8
20260904094557 87 227 0.0 0.0 0.00 0.00 0.00 39 1017.0
20260904093054 87 227 0.0 0.0 0.00 0.00 0.00 39 1017.0
20260904091549 86 265 0.0 0.0 0.00 0.00 0.00 41 1017.1
20260904090045 84 48 0.0 0.0 0.00 0.00 0.00 43 1017.2
20260904084541 84 180 0.0 0.0 0.00 0.00 0.00 47 1017.3
20260904083051 83 219 0.0 0.0 0.00 0.00 0.00 48 1017.2
20260904081532 82 173 0.0 0.0 0.00 0.00 0.00 49 1017.1
20260904080029 81 223 0.0 0.0 0.00 0.00 0.00 49 1017.0
20260904074526 80 183 0.0 0.0 0.00 0.00 0.00 52 1016.9
20260904073022 79 161 0.0 0.0 0.00 0.00 0.00 55 1016.8
20260904071529 79 159 0.0 0.0 0.00 0.00 0.00 58 1016.7
20260904070013 77 161 0.0 0.0 0.00 0.00 0.00 58 1016.6
20260904064507 75 161 0.0 0.0 0.00 0.00 0.00 62 1016.6
20260904063112 74 79 0.0 0.0 0.00 0.00 0.00 64 1016.5
20260904061602 72 323 0.0 0.0 0.00 0.00 0.00 68 1016.3
20260904060110 70 323 0.0 0.0 0.00 0.00 0.00 71 1016.2
20260904054549 67 323 0.0 0.0 0.00 0.00 0.00 75 1016.2
20260904053045 64 324 0.0 0.0 0.00 0.00 0.00 77 1016.0
20260904051545 63 323 0.0 0.0 0.00 0.00 0.00 77 1016.0
20260904050038 62 343 0.0 0.0 0.00 0.00 0.00 77 1015.8
20260904044545 62 11 0.0 0.0 0.00 0.00 0.00 75 1015.6
20260904043037 62 9 0.0 0.0 0.00 0.00 0.00 74 1015.6
20260904041535 62 10 0.0 0.0 0.00 0.00 0.00 75 1015.5
20260904040033 63 13 0.0 0.0 0.00 0.00 0.00 75 1015.4
20260904034536 63 13 0.0 0.0 0.00 0.00 0.00 75 1015.4
20260904033035 63 69 0.0 0.0 0.00 0.00 0.00 74 1015.5
20260904031528 64 123 0.0 0.0 0.00 0.00 0.00 73 1015.6
20260904030028 65 124 0.0 0.0 0.00 0.00 0.00 70 1015.8
20260904024526 65 122 0.0 0.0 0.00 0.00 0.00 67 1015.6
20260904023025 65 355 0.0 0.0 0.00 0.00 0.00 67 1015.4
20260904021526 65 331 0.0 0.0 0.00 0.00 0.00 67 1015.3
20260904020024 64 332 0.0 0.0 0.00 0.00 0.00 67 1015.2
20260904014525 64 336 0.0 0.0 0.00 0.00 0.00 68 1015.2
20260904013030 64 34 0.0 0.0 0.00 0.00 0.00 71 1015.2
20260904011530 66 113 0.0 0.0 0.00 0.00 0.00 73 1015.3
20260904010024 67 115 0.0 0.0 0.00 0.00 0.00 73 1015.2
20260904004512 67 124 0.0 0.0 0.00 0.00 0.00 71 1015.4
20260904003009 69 339 0.0 0.0 0.00 0.00 0.00 69 1015.4
20260904001509 69 138 0.0 0.0 0.00 0.00 0.00 66 1015.4
20260904000007 69 342 0.0 0.0 0.00 0.00 0.00 68 1015.4
20260903234505 69 355 0.0 0.0 0.00 0.00 0.00 71 1015.3
20260903233004 69 335 0.0 0.0 0.00 0.00 0.00 74 1015.4
20260903231503 69 325 0.0 0.0 0.00 0.00 0.00 73 1015.4
20260903230107 70 342 0.0 0.0 0.00 0.00 0.00 73 1015.3
20260903224608 71 345 0.0 0.0 0.00 0.00 0.00 73 1015.3
20260903223054 71 346 0.0 0.0 0.00 0.00 0.00 72 1015.3
20260903221552 72 337 0.0 0.0 0.00 0.00 0.00 71 1015.2
20260903220104 73 349 0.0 0.0 0.00 0.00 0.00 70 1015.3
20260903214547 74 355 0.0 0.0 0.00 0.00 0.00 70 1015.2
20260903213046 74 323 0.0 0.0 0.00 0.00 0.00 70 1015.1
20260903211613 75 320 0.0 0.0 0.00 0.00 0.00 70 1015.1
20260903210044 75 320 0.0 0.0 0.00 0.00 0.00 69 1015.1
20260903204544 75 348 0.0 0.0 0.00 0.00 0.00 69 1014.9
20260903203043 76 344 0.0 0.0 0.00 0.00 0.00 69 1014.8
20260903201543 76 342 0.0 0.0 0.00 0.00 0.00 68 1014.8
20260903200042 76 342 0.0 0.0 0.00 0.00 0.00 68 1014.9
20260903194545 77 327 0.0 0.0 0.00 0.00 0.00 67 1014.7
20260903193041 78 331 0.0 0.0 0.00 0.00 0.00 64 1014.7
20260903191540 80 321 0.0 0.0 0.00 0.00 0.00 61 1014.5
20260903190039 81 355 0.0 0.0 0.00 0.00 0.00 58 1014.3
20260903184540 81 21 0.0 0.0 0.00 0.00 0.00 57 1014.2
20260903183039 81 22 0.0 0.0 0.00 0.00 0.00 57 1014.0
20260903181538 82 17 0.0 0.0 0.00 0.00 0.00 56 1013.9
20260903180038 82 42 0.0 0.0 0.00 0.00 0.00 54 1013.7
20260903174557 81 67 0.0 0.0 0.00 0.00 0.00 56 1013.5
20260903173040 82 321 0.0 0.0 0.00 0.00 0.00 56 1013.3
20260903171536 84 348 0.0 0.0 0.00 0.00 0.00 57 1013.1
20260903170058 86 10 0.0 0.0 0.00 0.00 0.00 53 1013.0
20260903164542 88 34 0.0 0.0 0.00 0.00 0.00 51 1013.1
20260903163034 89 271 0.0 0.0 0.00 0.00 0.00 53 1013.1
20260903161534 91 247 0.0 0.0 0.00 0.00 0.00 47 1013.1
20260903160034 92 252 0.0 0.0 0.00 0.00 0.00 46 1012.9
20260903154532 92 228 0.0 0.0 0.00 0.00 0.00 46 1013.0
20260903153032 93 286 0.0 0.0 0.00 0.00 0.00 41 1012.8
20260903151532 92 290 0.0 0.0 0.00 0.00 0.00 43 1012.6
20260903150030 91 290 0.0 0.0 0.00 0.00 0.00 44 1012.6